York, PA

10:13 AM EDT on April 19, 2018 (GMT -0400)
York

Weather History for KTHV - October, 2011

Change the Weather History Date:

Sunday, October 30, 2011

  Actual Average Record
Temperature  
Mean Temperature 36 °F -  
Max Temperature 46 °F 0 °F 82 °F (2016)
Min Temperature 27 °F - 27 °F (2000)
Degree Days  
Heating Degree Days 28    
Moisture  
Dew Point 28 °F    
Average Humidity 80    
Maximum Humidity 96    
Minimum Humidity 51    
Precipitation  
Precipitation 0.00 in - - ()
Sea Level Pressure  
Sea Level Pressure 30.26 in    
Wind  
Wind Speed 4 mph (WNW)    
Max Wind Speed 9 mph    
Max Gust Speed -    
Visibility 10 miles    
Events      
Averages and records for this station are not official NWS values.
T = Trace of Precipitation, MM = Missing Value Source: NWS Daily Summary

Daily Weather History Graph

Daily Weather History Graph

Search for Another Location

Airport or City:

Astronomy

Oct. 30, 2011 Rise Set
Actual Time 7:33 AM EDT 6:07 PM EDT
Civil Twilight 7:05 AM EDT 6:35 PM EDT
Nautical Twilight 6:34 AM EDT 7:07 PM EDT
Astronomical Twilight 6:02 AM EDT 7:39 PM EDT
Moon 11:51 AM EDT (10/30) 9:34 PM EDT (10/30)
Length of Visible Light 11h 29m
Length of Day
10h 34m
Waxing Crescent, 20% of the Moon is Illuminated
Oct 30
Waxing Crescent
Nov 2
First Quarter
Nov 10
Full
Nov 18
Last Quarter
Nov 25
New

Hourly Weather History & Observations

Time (EDT) Temp. Windchill Dew Point Humidity Pressure Visibility Wind Dir Wind Speed Gust Speed Precip Events Conditions
12:53 AM 33.1 °F 27.7 °F 30.0 °F 89% 30.08 in 10.0 mi WNW 5.8 mph - N/A   Clear
1:53 AM 28.9 °F 23.9 °F 27.0 °F 92% 30.09 in 10.0 mi WNW 4.6 mph - N/A   Clear
2:53 AM 28.9 °F 23.9 °F 27.0 °F 92% 30.11 in 10.0 mi WNW 4.6 mph - N/A   Clear
3:53 AM 30.9 °F 27.5 °F 28.0 °F 89% 30.12 in 10.0 mi West 3.5 mph - N/A   Clear
4:53 AM 30.0 °F 25.2 °F 27.0 °F 88% 30.14 in 10.0 mi West 4.6 mph - N/A   Clear
5:53 AM 30.0 °F 24.1 °F 27.0 °F 88% 30.17 in 10.0 mi West 5.8 mph - N/A   Clear
6:53 AM 27.0 °F - 24.1 °F 89% 30.19 in 10.0 mi Calm Calm - N/A   Clear
8:53 AM 30.9 °F - 28.0 °F 89% 30.26 in 10.0 mi Calm Calm - N/A   Clear
9:53 AM 36.0 °F 32.1 °F 30.0 °F 79% 30.29 in 10.0 mi West 4.6 mph - N/A   Clear
10:53 AM 37.9 °F - 30.9 °F 76% 30.31 in 10.0 mi Calm Calm - N/A   Clear
11:53 AM 41.0 °F 38.0 °F 30.0 °F 65% 30.32 in 10.0 mi NW 4.6 mph - N/A   Clear
12:53 PM 41.0 °F 35.2 °F 28.9 °F 62% 30.31 in 10.0 mi WNW 9.2 mph - N/A   Clear
1:53 PM 43.0 °F 38.8 °F 28.9 °F 58% 30.31 in 10.0 mi West 6.9 mph - N/A   Clear
2:53 PM 44.1 °F 40.8 °F 28.9 °F 55% 30.30 in 10.0 mi West 5.8 mph - N/A   Clear
3:53 PM 45.0 °F 41.8 °F 28.9 °F 53% 30.30 in 10.0 mi WNW 5.8 mph - N/A   Clear
4:53 PM 46.0 °F 44.8 °F 28.9 °F 51% 30.31 in 10.0 mi West 3.5 mph - N/A   Clear
5:53 PM 39.0 °F - 30.9 °F 73% 30.31 in 10.0 mi Calm Calm - N/A   Clear
7:53 PM 30.9 °F - 28.9 °F 92% 30.34 in 10.0 mi Calm Calm - N/A   Clear
8:53 PM 28.9 °F - 28.0 °F 96% 30.35 in 6.0 mi Calm Calm - N/A   Clear
9:53 PM 28.9 °F - 27.0 °F 92% 30.37 in 8.0 mi Calm Calm - N/A   Clear
10:53 PM 28.9 °F - 27.0 °F 92% 30.37 in 10.0 mi Calm Calm - N/A   Clear
11:53 PM 27.0 °F - 24.1 °F 89% 30.37 in 9.0 mi Calm Calm - N/A   Clear